This demonstration page uses our WeatherBlox Daily Observations layout. Learn more.

Left ArrowRight Arrow

Hourly Observations for August 1, 2018

Temp ( °F °C ) Dew Point ( °F °C ) Humidity (%) Winds ( mph kmh ) Pressure ( in mb ) Visibility ( mi km ) Precip ( " mm )
12:52 am 00:52 Clear 62 16.7 57 13.9 84 84 Calm 30.01 1016 10 16 0.00 0.00
1:52 am 01:52 Clear 61 16.1 56 13.3 84 84 Calm 30.01 1016 10 16 0.00 0.00
2:52 am 02:52 Clear 60 15.6 55 12.8 84 84 Calm 30.01 1016 10 16 0.00 0.00
3:52 am 03:52 Clear 60 15.6 55 12.8 84 84 Calm 30.01 1016 10 16 0.00 0.00
4:52 am 04:52 Clear 59 15 54 12.2 83 83 Calm 30.02 1017 10 16 0.00 0.00
5:52 am 05:52 Clear 60 15.6 55 12.8 84 84 Calm 30.03 1017 10 16 0.00 0.00
6:52 am 06:52 Sunny 60 15.6 56 13.3 86 86 Calm 30.04 1017 10 16 0.00 0.00
7:52 am 07:52 Sunny 67 19.4 60 15.6 79 79 Calm 30.04 1017 10 16 0.00 0.00
8:52 am 08:52 Sunny 73 22.8 60 15.6 64 64 W 3 6 30.06 1018 10 16 0.00 0.00
9:52 am 09:52 Sunny 78 25.6 60 15.6 54 54 Calm 30.06 1018 10 16 0.00 0.00
10:52 am 10:52 Sunny 82 27.8 57 13.9 42 42 NNW 7 11 30.05 1018 10 16 0.00 0.00
11:52 am 11:52 Mostly Sunny 84 28.9 56 13.3 38 38 WNW 9 15 30.04 1017 10 16 0.00 0.00
12:52 pm 12:52 Mostly Sunny 87 30.6 55 12.8 34 34 NNE 8 13 30.03 1017 10 16 0.00 0.00
1:52 pm 13:52 Mostly Sunny 87 30.6 56 13.3 35 35 WNW 6 9 30.01 1016 10 16 0.00 0.00
2:52 pm 14:52 Sunny 86 30 54 12.2 33 33 NW 13 20 29.99 1016 10 16 0.00 0.00
3:52 pm 15:52 Sunny 91 32.8 54 12.2 28 28 NW 10 17 29.98 1015 10 16 0.00 0.00
4:52 pm 16:52 Mostly Sunny 88 31.1 54 12.2 31 31 NNW 10 17 29.98 1015 10 16 0.00 0.00
5:52 pm 17:52 Mostly Cloudy 88 31.1 54 12.2 31 31 WNW 5 7 29.97 1015 10 16 0.00 0.00
6:52 pm 18:52 Sunny 87 30.6 54 12.2 32 32 NW 5 7 29.96 1015 10 16 0.00 0.00
7:52 pm 19:52 Mostly Cloudy 83 28.3 56 13.3 40 40 NW 5 7 29.97 1015 10 16 0.00 0.00
8:52 pm 20:52 Mostly Clear 79 26.1 55 12.8 44 44 N 7 11 29.97 1015 10 16 0.00 0.00
9:52 pm 21:52 Clear 78 25.6 54 12.2 43 43 NE 5 7 29.99 1016 10 16 0.00 0.00
10:52 pm 22:52 Clear 70 21.1 56 13.3 61 61 WSW 3 6 30.00 1016 10 16 0.00 0.00
11:52 pm 23:52 Clear 69 20.6 56 13.3 63 63 Calm 30.00 1016 10 16 0.00 0.00

Powered by AerisWeather